VE3KSR Weather Reports


Display with metric or nautical units.
time (UTC)temp
F
wind
direction
speed
MPH
gust
MPH
rain 1hr
in
rain 24hr
in
rain mn
in
humidity
%
barometer
mb
20190618064731 57 0 0.0 0.0 4.85 0.00 0.00 79 1019.4
20190618064231 57 0 0.0 0.0 4.85 0.00 0.00 79 1019.5
20190618063732 57 0 0.0 0.0 4.85 0.00 0.00 79 1019.4
20190618063231 57 0 0.0 0.0 4.85 0.00 0.00 79 1019.5
20190618062731 57 0 0.0 0.0 4.85 0.00 0.00 79 1019.5
20190618062231 57 0 0.0 0.0 4.85 0.00 0.00 79 1019.5
20190618061731 57 0 0.0 0.0 4.85 0.00 0.00 79 1019.5
20190618061232 57 0 0.0 0.0 4.85 0.00 0.00 79 1019.6
20190618060733 57 0 0.0 0.0 4.85 0.00 0.00 80 1019.6
20190618060231 57 177 3.0 3.0 4.85 0.00 0.00 81 1019.6
20190618055731 56 169 5.0 5.0 4.85 0.00 0.00 81 1019.6
20190618055232 56 174 5.0 5.0 4.85 0.00 0.00 82 1019.8
20190618054731 56 172 5.0 5.0 4.85 0.00 0.00 82 1019.8
20190618054231 56 176 5.0 5.0 4.85 0.00 0.00 83 1019.6
20190618053731 56 174 5.0 6.0 4.85 0.00 0.00 83 1019.6
20190618053231 56 180 5.0 6.0 4.85 0.00 0.00 84 1019.6
20190618052731 56 176 6.0 6.0 4.85 0.00 0.00 84 1019.6
20190618052231 56 0 0.0 0.0 4.85 0.00 0.00 85 1019.6
20190618051734 56 0 0.0 0.0 4.85 0.00 0.00 85 1019.6
20190618051231 56 179 5.0 5.0 4.85 0.00 0.00 84 1019.6
20190618050732 56 0 0.0 0.0 4.85 0.00 0.00 84 1019.6
20190618050232 56 0 0.0 0.0 4.85 0.00 0.00 84 1019.5
20190618045731 56 0 0.0 0.0 4.85 0.00 0.00 84 1019.4
20190618045231 56 174 1.0 4.0 4.85 0.00 0.00 84 1019.4
20190618044731 56 173 4.0 5.0 4.85 0.00 0.00 84 1019.5
20190618044231 56 0 0.0 0.0 4.85 0.00 0.00 84 1019.5
20190618043732 56 0 0.0 0.0 4.85 0.00 0.00 84 1019.5
20190618043231 56 0 0.0 0.0 4.85 0.00 0.00 84 1019.6
20190618042731 56 0 0.0 0.0 4.85 0.00 0.00 84 1019.6
20190618042231 56 0 0.0 0.0 4.85 0.00 0.00 84 1019.6
20190618041731 56 131 1.0 3.0 4.85 0.00 0.00 84 1019.8
20190618041231 56 131 1.0 4.0 4.85 0.00 0.00 79 1019.8
20190618040732 56 129 1.0 3.0 4.85 0.00 0.00 85 1019.6
20190618040231 56 141 4.0 5.0 4.85 0.00 0.00 86 1019.6
20190618035731 56 120 6.0 7.0 4.85 0.00 0.00 86 1019.8
20190618035231 56 129 6.0 7.0 4.85 0.00 0.00 85 1019.8
20190618034731 56 132 5.0 6.0 4.85 0.00 0.00 85 1019.8
20190618034231 56 128 7.0 8.0 4.85 0.00 0.00 85 1019.9
20190618033732 56 105 7.0 8.0 4.85 0.00 0.00 86 1019.9
20190618033231 56 110 9.0 10.0 4.85 0.00 0.00 86 1019.8
20190618032731 56 113 7.0 9.0 4.85 0.00 0.00 86 1019.8
20190618032231 56 113 8.0 10.0 4.85 0.00 0.00 86 1019.8
20190618031731 56 118 8.0 10.0 4.85 0.00 0.00 87 1019.5
20190618031232 56 93 9.0 11.0 4.85 0.00 0.00 87 1019.6
20190618030732 56 118 9.0 12.0 4.85 0.00 0.00 88 1019.6
20190618030232 56 117 9.0 10.0 4.85 0.00 0.00 89 1019.8
20190618025731 56 107 8.0 11.0 4.85 0.00 0.00 88 1019.8
20190618025232 56 115 8.0 10.0 4.85 0.00 0.00 88 1019.8
20190618024735 56 111 8.0 10.0 4.85 0.00 0.00 88 1019.5
20190618024231 56 110 8.0 10.0 4.85 0.00 0.00 89 1019.8
20190618023732 56 121 7.0 9.0 4.85 0.00 0.00 89 1019.9
20190618023231 56 134 7.0 9.0 4.85 0.00 0.00 89 1019.8
20190618022232 57 127 6.0 8.0 4.85 0.00 0.00 89 1020.0
20190618021733 57 120 6.0 9.0 4.85 0.00 0.00 89 1019.9
20190618021231 57 138 8.0 10.0 4.85 0.00 0.00 89 1019.9
20190618020733 57 121 7.0 9.0 4.85 0.00 0.00 89 1019.8
20190618020231 57 138 8.0 12.0 4.85 0.00 0.00 88 1019.6
20190618015733 57 132 8.0 10.0 4.85 0.00 0.00 89 1019.5
20190618015232 57 128 8.0 10.0 4.85 0.00 0.00 89 1019.5
20190618014731 57 134 9.0 12.0 4.85 0.00 0.00 89 1019.6
20190618014231 58 152 7.0 10.0 4.85 0.00 0.00 90 1019.5
20190618013731 58 135 7.0 10.0 4.85 0.00 0.00 89 1019.5
20190618013231 58 142 8.0 10.0 4.85 0.00 0.00 89 1019.4
20190618012732 58 143 8.0 10.0 4.85 0.00 0.00 89 1019.5
20190618012231 58 158 8.0 10.0 4.85 0.00 0.00 88 1019.4
20190618011731 59 125 8.0 10.0 4.85 0.00 0.00 86 1019.5
20190618011231 59 142 8.0 10.0 4.85 0.00 0.00 86 1019.5
20190618010734 59 141 7.0 9.0 4.85 0.00 0.00 84 1019.5
20190618010232 60 139 9.0 11.0 4.85 0.00 0.00 84 1019.4
20190618005731 60 152 7.0 10.0 4.85 0.00 0.00 84 1019.5
20190618005232 60 152 8.0 10.0 4.85 0.00 0.00 83 1019.3
20190618004734 60 139 7.0 10.0 4.85 0.00 0.00 83 1019.3
20190618004232 60 105 7.0 11.0 4.85 0.00 0.00 82 1019.3
20190618003732 60 120 8.0 11.0 4.85 0.00 0.00 82 1019.2
20190618003233 61 134 8.0 10.0 4.85 0.00 0.00 81 1019.2
20190618002732 61 139 9.0 12.0 4.85 0.00 0.00 80 1019.1
20190618002234 61 139 9.0 13.0 4.85 0.00 0.00 80 1019.1
20190618001732 61 124 10.0 12.0 4.85 0.00 0.00 80 1019.1
20190618001232 61 121 9.0 12.0 4.85 0.00 0.00 79 1019.2
20190618000732 61 120 9.0 11.0 4.85 0.00 0.00 78 1019.2
20190618000231 62 105 8.0 12.0 4.85 0.00 0.00 78 1019.2
20190617235732 62 129 9.0 12.0 4.85 0.00 0.00 77 1019.1
20190617235232 62 124 11.0 14.0 4.85 0.00 0.00 76 1019.2
20190617234732 62 125 9.0 13.0 4.85 0.00 0.00 76 1019.1
20190617234232 62 124 9.0 12.0 4.85 0.00 0.00 76 1019.2
20190617233732 63 132 10.0 12.0 4.85 0.00 0.00 76 1019.1
20190617233232 63 125 10.0 11.0 4.85 0.00 0.00 75 1019.2
20190617232733 63 113 6.0 9.0 4.85 0.00 0.00 75 1019.2
20190617232232 63 107 5.0 8.0 4.85 0.00 0.00 74 1019.1
20190617231733 63 121 4.0 5.0 4.85 0.00 0.00 74 1019.0
20190617231232 63 128 6.0 8.0 4.85 0.00 0.00 73 1019.2
20190617230732 63 115 4.0 8.0 4.85 0.00 0.00 73 1019.2
20190617230234 63 125 6.0 7.0 4.85 0.00 0.00 73 1019.1
20190617225232 64 127 7.0 10.0 4.85 0.00 0.00 73 1019.2
20190617224732 64 132 6.0 8.0 4.85 0.00 0.00 72 1019.2
20190617224232 64 127 5.0 7.0 4.85 0.00 0.00 71 1019.2
20190617223732 64 134 6.0 8.0 4.85 0.00 0.00 72 1019.3
20190617223232 64 128 6.0 8.0 4.85 0.00 0.00 72 1019.3
20190617222732 64 118 9.0 11.0 4.85 0.00 0.00 71 1019.2
20190617222232 64 150 7.0 11.0 4.85 0.00 0.00 70 1019.4
20190617221732 64 159 7.0 8.0 4.85 0.00 0.00 71 1019.5
20190617221233 64 125 7.0 9.0 4.85 0.00 0.00 72 1019.5
20190617220733 64 128 8.0 10.0 4.85 0.00 0.00 72 1019.6
20190617220232 64 149 7.0 9.0 4.85 0.00 0.00 72 1019.8
20190617215732 65 122 7.0 8.0 4.85 0.00 0.00 71 1019.9
20190617215544 64 139 4.0 7.0 4.85 0.00 0.00 72 1020.0
20190617215232 64 139 4.0 7.0 4.85 0.00 0.00 72 1020.0
20190617214733 65 134 6.0 9.0 4.85 0.00 0.00 70 1020.1
20190617214232 65 156 6.0 8.0 4.85 0.00 0.00 69 1020.1
20190617213732 65 135 1.0 5.0 4.85 0.00 0.00 68 1020.1
20190617213232 65 0 0.0 0.0 4.85 0.00 0.00 67 1020.2
20190617212733 65 0 0.0 0.0 4.85 0.00 0.00 67 1020.2
20190617212232 65 0 0.0 0.0 4.85 0.00 0.00 68 1020.2
20190617211732 65 0 0.0 0.0 4.85 0.00 0.00 68 1020.3
20190617211232 65 0 0.0 0.0 4.85 0.00 0.00 68 1020.4
20190617210734 64 90 1.0 3.0 4.85 0.00 0.00 69 1020.3
20190617210234 64 114 5.0 7.0 4.85 0.00 0.00 69 1020.4
20190617205732 64 86 6.0 8.0 4.85 0.00 0.00 68 1020.5
20190617205234 64 103 2.0 3.0 4.85 0.00 0.00 68 1020.7
20190617204733 63 91 4.0 6.0 4.85 0.00 0.00 69 1020.6
20190617204232 63 111 4.0 6.0 4.85 0.00 0.00 68 1020.8
20190617203735 64 113 3.0 6.0 4.85 0.00 0.00 69 1020.9
20190617203232 63 138 4.0 7.0 4.85 0.00 0.00 66 1020.9
20190617202732 64 142 1.0 5.0 4.85 0.00 0.00 67 1020.9
20190617202232 64 0 0.0 0.0 4.85 0.00 0.00 66 1021.0
20190617201732 64 0 0.0 0.0 4.85 0.00 0.00 68 1021.0
20190617201232 64 0 0.0 0.0 4.85 0.00 0.00 68 1021.2
20190617200734 63 173 3.0 7.0 4.85 0.00 0.00 67 1021.3
20190617200232 64 162 4.0 7.0 4.85 0.00 0.00 66 1021.3
20190617195732 63 0 0.0 0.0 4.85 0.00 0.00 68 1021.3
20190617195233 63 169 2.0 5.0 4.85 0.00 0.00 68 1021.3
20190617194732 63 134 1.0 3.0 4.85 0.00 0.00 68 1021.4
20190617194232 62 136 2.0 5.0 4.85 0.00 0.00 69 1021.5
20190617193732 62 127 6.0 7.0 4.85 0.00 0.00 70 1021.5
20190617192232 62 141 2.0 6.0 4.85 0.00 0.00 71 1021.5
20190617191732 62 150 6.0 8.0 4.85 0.00 0.00 70 1021.7
20190617191232 62 149 4.0 7.0 4.85 0.00 0.00 71 1021.4
20190617190733 62 141 6.0 8.0 4.85 0.00 0.00 70 1021.6
20190617190233 62 110 6.0 8.0 4.85 0.00 0.00 70 1021.7
20190617185733 62 183 7.0 9.0 4.85 0.00 0.00 69 1021.6
20190617185233 62 180 6.0 8.0 4.85 0.00 0.00 68 1021.7
20190617184732 62 160 6.0 8.0 4.85 0.00 0.00 69 1021.6
20190617184232 62 118 6.0 9.0 4.85 0.00 0.00 68 1021.8
20190617183733 62 150 3.0 8.0 4.85 0.00 0.00 68 1021.7
20190617183232 62 111 5.0 6.0 4.85 0.00 0.00 69 1021.7
20190617182732 62 70 9.0 13.0 4.85 0.00 0.00 70 1021.7
20190617182232 62 103 7.0 10.0 4.85 0.00 0.00 71 1021.8
20190617181732 62 111 8.0 10.0 4.85 0.00 0.00 69 1021.8
20190617181233 63 91 6.0 9.0 4.85 0.00 0.00 68 1021.8
20190617180732 63 105 7.0 9.0 4.85 0.00 0.00 69 1021.8
20190617180233 62 121 4.0 8.0 4.85 0.00 0.00 68 1021.8
20190617175733 62 89 8.0 10.0 4.85 0.00 0.00 70 1021.9
20190617175233 62 96 2.0 5.0 4.85 0.00 0.00 70 1021.9
20190617174733 61 136 4.0 8.0 4.85 0.00 0.00 68 1021.8
20190617174233 61 117 6.0 8.0 4.85 0.00 0.00 71 1022.0
20190617173734 61 111 10.0 13.0 4.85 0.00 0.00 68 1021.9
20190617173233 62 100 8.0 11.0 4.85 0.00 0.00 70 1022.2
20190617172733 61 117 5.0 8.0 4.85 0.00 0.00 68 1022.3
20190617172233 61 131 8.0 10.0 4.85 0.00 0.00 69 1022.1
20190617171733 61 124 9.0 12.0 4.85 0.00 0.00 70 1022.2
20190617171232 61 113 7.0 11.0 4.85 0.00 0.00 70 1022.2
20190617170734 61 115 8.0 12.0 4.85 0.00 0.00 71 1022.1
20190617170233 61 98 9.0 11.0 4.85 0.00 0.00 72 1022.1
20190617165733 60 127 8.0 12.0 4.85 0.00 0.00 72 1022.0
20190617165233 60 111 10.0 13.0 4.85 0.00 0.00 72 1022.2
20190617164733 60 111 11.0 13.0 4.85 0.00 0.00 74 1022.2
20190617164233 60 122 7.0 9.0 4.85 0.00 0.00 74 1022.3
20190617163733 60 118 11.0 13.0 4.85 0.00 0.00 74 1022.3
20190617163233 60 122 10.0 12.0 4.85 0.00 0.00 74 1022.3
20190617162733 60 89 11.0 18.0 4.85 0.00 0.00 75 1022.3
20190617162233 60 114 11.0 14.0 4.85 0.00 0.00 74 1022.3
20190617161733 60 98 8.0 11.0 4.85 0.00 0.00 76 1022.3
20190617161234 60 129 7.0 10.0 4.85 0.00 0.00 77 1022.3
20190617160733 60 84 7.0 9.0 4.85 0.00 0.00 76 1022.5
20190617160233 60 111 9.0 11.0 4.85 0.00 0.00 76 1022.5
20190617155733 59 121 6.0 10.0 4.85 0.00 0.00 77 1022.5
20190617155233 59 87 8.0 10.0 4.85 0.00 0.00 77 1022.5
20190617154734 59 86 11.0 12.0 4.85 0.00 0.00 77 1022.6
20190617154233 59 103 10.0 13.0 4.85 0.00 0.00 78 1022.5
20190617153733 59 107 10.0 11.0 4.85 0.00 0.00 77 1022.3
20190617153234 59 94 10.0 12.0 4.85 0.00 0.00 78 1022.5
20190617152734 59 84 8.0 11.0 4.85 0.00 0.00 78 1022.5
20190617152233 58 87 10.0 12.0 4.85 0.00 0.00 78 1022.5
20190617151732 58 111 7.0 11.0 4.85 0.00 0.00 80 1022.6
20190617151234 58 79 8.0 10.0 4.85 0.00 0.00 78 1022.7
20190617150734 58 87 7.0 10.0 4.85 0.00 0.00 83 1022.6
20190617150233 58 98 6.0 10.0 4.85 0.00 0.00 81 1022.6
20190617145733 57 84 8.0 12.0 4.85 0.00 0.00 82 1022.6
20190617145233 57 110 9.0 12.0 4.85 0.00 0.00 83 1022.6
20190617144733 57 80 9.0 12.0 4.85 0.00 0.00 84 1022.6
20190617144243 56 91 9.0 11.0 4.85 0.00 0.00 84 1022.7
20190617143734 56 65 9.0 12.0 4.85 0.00 0.00 86 1022.7
20190617143233 56 75 8.0 11.0 4.85 0.00 0.00 86 1022.6
20190617142734 56 113 8.0 10.0 4.85 0.00 0.00 87 1022.6
20190617142233 55 104 8.0 12.0 4.85 0.00 0.00 88 1022.6
20190617141735 55 89 7.0 11.0 4.85 0.00 0.00 90 1022.6
20190617141618 55 75 6.0 9.0 4.85 0.00 0.00 91 1022.6
20190617141233 55 96 9.0 12.0 4.85 0.00 0.00 88 1022.5
20190617140734 55 62 7.0 9.0 4.85 0.00 0.00 90 1022.6
20190617140233 55 75 6.0 9.0 4.85 0.00 0.00 91 1022.6
20190617135733 54 76 7.0 8.0 4.85 0.00 0.00 91 1022.7
20190617135233 54 89 8.0 9.0 4.85 0.00 0.00 91 1022.7
20190617134734 54 93 8.0 10.0 4.85 0.00 0.00 91 1022.7
20190617134233 54 91 7.0 9.0 4.85 0.00 0.00 92 1022.5
20190617133734 53 86 7.0 10.0 4.85 0.00 0.00 93 1022.6
20190617133233 53 113 7.0 9.0 4.85 0.00 0.00 93 1022.7
20190617132733 53 111 7.0 8.0 4.85 0.00 0.00 93 1022.6
20190617132233 53 110 6.0 8.0 4.85 0.00 0.00 94 1022.5
20190617131733 53 105 6.0 8.0 4.85 0.00 0.00 94 1022.5
20190617131616 52 96 6.0 8.0 4.85 0.00 0.00 94 1022.6
20190617131236 53 107 7.0 9.0 4.85 0.00 0.00 94 1022.5
20190617131204 53 107 6.0 8.0 4.85 0.00 0.00 94 1022.6
20190617130733 53 107 6.0 8.0 4.85 0.00 0.00 94 1022.6
20190617130233 53 98 7.0 8.0 4.85 0.00 0.00 94 1022.6
20190617125734 52 96 6.0 8.0 4.85 0.00 0.00 94 1022.6
20190617125233 52 115 7.0 9.0 4.85 0.00 0.00 95 1022.6
20190617124733 52 90 8.0 10.0 4.85 0.00 0.00 94 1022.5
20190617124233 52 90 8.0 10.0 4.85 0.00 0.00 95 1022.6
20190617123733 52 110 8.0 10.0 4.85 0.00 0.00 95 1022.5
20190617123233 52 97 8.0 10.0 4.85 0.00 0.00 95 1022.5
20190617122733 52 100 8.0 10.0 4.85 0.00 0.00 95 1022.6
20190617122233 52 104 8.0 11.0 4.85 0.00 0.00 95 1022.6
20190617121733 51 111 8.0 10.0 4.85 0.00 0.00 96 1022.5
20190617121233 51 104 8.0 9.0 4.85 0.00 0.00 96 1022.5
20190617120734 51 97 7.0 9.0 4.85 0.00 0.00 96 1022.5
20190617120235 51 101 6.0 8.0 4.85 0.00 0.00 96 1022.5
20190617115733 51 89 7.0 9.0 4.85 0.00 0.00 96 1022.5
20190617115233 51 105 6.0 8.0 4.85 0.00 0.00 96 1022.5
20190617114733 50 114 7.0 9.0 4.85 0.00 0.00 97 1022.5
20190617114234 50 91 7.0 9.0 4.85 0.00 0.00 97 1022.3
20190617113734 50 94 7.0 8.0 4.85 0.00 0.00 97 1022.3
20190617113235 50 100 8.0 9.0 4.85 0.00 0.00 97 1022.3
20190617112733 50 97 7.0 10.0 4.85 0.00 0.00 97 1022.2
20190617112233 50 98 7.0 9.0 4.85 0.00 0.00 97 1022.1
20190617111734 50 105 7.0 9.0 4.85 0.00 0.00 97 1022.3
20190617111233 50 82 7.0 9.0 4.85 0.00 0.00 97 1022.1
20190617110734 50 80 8.0 9.0 4.85 0.00 0.00 97 1022.1
20190617110233 50 84 8.0 9.0 4.85 0.00 0.00 97 1022.0
20190617105734 50 90 7.0 8.0 4.85 0.00 0.00 97 1022.1
20190617105234 50 80 7.0 8.0 4.85 0.00 0.00 97 1021.9
20190617104733 50 89 9.0 9.0 4.85 0.00 0.00 97 1021.9
20190617104603 50 83 8.0 9.0 4.85 0.00 0.00 96 1021.4
20190617104233 50 83 7.0 9.0 4.85 0.00 0.00 97 1021.8
20190617103734 50 77 8.0 9.0 4.85 0.00 0.00 96 1021.7
20190617103233 50 83 8.0 9.0 4.85 0.00 0.00 96 1021.4
20190617102735 50 87 8.0 9.0 4.85 0.00 0.00 96 1021.4
20190617102234 50 86 8.0 8.0 4.85 0.00 0.00 96 1021.4
20190617101735 50 87 7.0 8.0 4.85 0.00 0.00 95 1021.5
20190617101233 50 93 6.0 7.0 4.85 0.00 0.00 96 1021.3
20190617100734 50 93 4.0 5.0 4.85 0.00 0.00 96 1021.6
20190617100234 50 91 5.0 5.0 4.85 0.00 0.00 95 1021.5
20190617095733 50 97 4.0 5.0 4.85 0.00 0.00 96 1021.5
20190617095233 50 0 0.0 0.0 4.85 0.00 0.00 96 1021.5
20190617094735 50 0 0.0 0.0 4.85 0.00 0.00 95 1021.4
20190617094233 50 0 0.0 0.0 4.85 0.00 0.00 95 1021.4
20190617093736 50 86 5.0 6.0 4.85 0.00 0.00 95 1021.2
20190617093233 50 82 5.0 6.0 4.85 0.00 0.00 95 1021.2
20190617092826 50 84 6.0 7.0 4.85 0.00 0.00 96 1021.2
20190617092733 50 84 6.0 7.0 4.85 0.00 0.00 96 1021.2
20190617092234 50 86 6.0 7.0 4.85 0.00 0.00 96 1021.0
20190617091733 50 84 7.0 7.0 4.85 0.00 0.00 96 1021.0
20190617091233 50 73 6.0 8.0 4.85 0.00 0.00 96 1020.9
20190617090735 50 79 8.0 9.0 4.85 0.00 0.00 96 1020.6
20190617090234 50 70 8.0 9.0 4.85 0.00 0.00 93 1020.5
20190617085734 50 75 8.0 9.0 4.85 0.00 0.00 96 1020.4
20190617085234 50 79 8.0 8.0 4.85 0.00 0.00 96 1020.5
20190617084734 50 68 7.0 8.0 4.85 0.00 0.00 96 1020.4
20190617084234 50 76 7.0 8.0 4.85 0.00 0.00 96 1020.5
20190617083734 50 59 7.0 9.0 4.85 0.00 0.00 96 1020.4
20190617083235 50 76 8.0 9.0 4.85 0.00 0.00 97 1020.4
20190617082733 50 68 8.0 9.0 4.85 0.00 0.00 97 1020.4
20190617082234 50 72 7.0 9.0 4.85 0.00 0.00 97 1020.2
20190617081737 50 66 7.0 9.0 4.85 0.00 0.00 97 1020.2
20190617081557 50 65 6.0 7.0 4.85 0.00 0.00 97 1020.4
20190617081234 50 68 7.0 8.0 4.85 0.00 0.00 97 1020.3
20190617080734 50 70 6.0 7.0 4.85 0.00 0.00 97 1020.5
20190617080234 50 65 6.0 7.0 4.85 0.00 0.00 97 1020.4
20190617075734 50 70 6.0 7.0 4.85 0.00 0.00 97 1020.5
20190617075237 50 72 6.0 7.0 4.85 0.00 0.00 97 1020.5
20190617074734 50 72 6.0 6.0 4.85 0.00 0.00 97 1020.6
20190617074234 50 76 6.0 7.0 4.85 0.00 0.00 97 1020.5
20190617073734 50 68 5.0 6.0 4.85 0.00 0.00 97 1020.4
20190617073234 50 55 4.0 6.0 4.85 0.00 0.00 97 1020.2
20190617072734 50 68 6.0 6.0 4.85 0.00 0.00 97 1020.3
20190617072234 51 72 5.0 7.0 4.85 0.00 0.00 97 1020.1
20190617071734 51 63 7.0 9.0 4.85 0.00 0.00 97 1020.1
20190617071234 51 65 7.0 9.0 4.85 0.00 0.00 97 1020.2
20190617070735 51 45 8.0 9.0 4.85 0.00 0.00 97 1020.1
20190617070234 51 59 7.0 9.0 4.85 0.00 0.00 97 1020.0
20190617065734 51 48 7.0 9.0 4.85 0.00 0.00 97 1020.1
20190617065234 51 51 7.0 8.0 4.85 0.00 0.00 96 1020.1